Location: Elaina
(34.1445°N, 106.7742°W)
Time: 12:05:57
(UTC+00:00)

NOSS 3-1 (C) - Pass Details

Date: 19 March 2026
Orbit: 618 x 1583 km, 63.4° (Epoch: 10 January)

Event Time Altitude Azimuth Distance (km) Brightness Sun altitude
Rises 11:10:26 0° 341° (NNW) 3,805 6.6 -25.6°
Reaches altitude 10° 11:13:35 10° 356° (N) 3,014 6.2 -25.0°
Maximum altitude 11:19:13 23° 47° (NE) 2,442 6.2 -23.9°
Drops below altitude 10° 11:25:42 10° 95° (E) 3,531 7.4 -22.6°
Sets 11:29:43 0° 109° (ESE) 4,626 7.9 -21.8°
